timestamp,surface_pressure_avg,surface_temp_avg,battery_voltage,lat,long
2024-04-29 00:09:00+00:00,283.4948,2.9,12.33,47.84626,-54.09684
2024-04-29 00:19:00+00:00,288.3997,2.9,12.25,47.84626,-54.09684
2024-04-29 00:29:00+00:00,293.3096,2.9,12.25,47.84626,-54.09684
2024-04-29 00:39:00+00:00,300.818,2.9,12.25,47.84626,-54.09684
2024-04-29 00:49:00+00:00,310.6063,2.87,12.25,47.84626,-54.09684
2024-04-29 00:59:00+00:00,316.8497,2.6,12.25,47.84626,-54.09684
2024-04-29 01:09:00+00:00,322.2397,2.7,12.25,47.84626,-54.09684
2024-04-29 01:19:00+00:00,329.9996,2.8,12.25,47.84626,-54.09684
2024-04-29 01:29:00+00:00,336.3297,2.3,12.25,47.84626,-54.09684
2024-04-29 01:39:00+00:00,335.9013,2.13,12.25,47.84626,-54.09684
2024-04-29 01:49:00+00:00,336.7679,2.1,12.25,47.84626,-54.09684
2024-04-29 01:59:00+00:00,343.2530000000001,2.0,12.25,47.84626,-54.09684
2024-04-29 02:09:00+00:00,348.6011,2.06,12.25,47.84626,-54.09684
2024-04-29 02:19:00+00:00,345.6012,2.36,12.25,47.84626,-54.09684
2024-04-29 02:29:00+00:00,346.5013,2.5,12.25,47.84626,-54.09684
2024-04-29 02:39:00+00:00,354.8463,2.5,12.25,47.84626,-54.09684
2024-04-29 02:49:00+00:00,356.38300000000015,2.56,12.25,47.84626,-54.09684
2024-04-29 02:59:00+00:00,350.98800000000006,2.6,12.25,47.84626,-54.09684
2024-04-29 03:09:00+00:00,350.9313,2.6,12.25,47.84626,-54.09684
2024-04-29 03:19:00+00:00,352.1979,2.6,12.25,47.84626,-54.09684
2024-04-29 03:29:00+00:00,347.4329,2.54,12.25,47.84626,-54.09684
2024-04-29 03:39:00+00:00,340.668,2.5,12.25,47.84626,-54.09684
2024-04-29 03:49:00+00:00,342.9479,2.5,12.25,47.84626,-54.09684
2024-04-29 03:59:00+00:00,340.548,2.5,12.25,47.84626,-54.09684
2024-04-29 04:09:00+00:00,338.8546,2.5,12.25,47.84626,-54.09684
2024-04-29 04:19:00+00:00,339.608,2.5,12.25,47.84626,-54.09684
2024-04-29 04:29:00+00:00,339.3279,2.5,12.25,47.84626,-54.09684
2024-04-29 04:39:00+00:00,335.8496,2.5,12.25,47.84626,-54.09684
2024-04-29 04:49:00+00:00,329.2113,2.5,12.25,47.84626,-54.09684
2024-04-29 04:59:00+00:00,327.493,2.5,12.25,47.84626,-54.09684
2024-04-29 05:09:00+00:00,324.4114,2.5,12.25,47.84626,-54.09684
2024-04-29 05:19:00+00:00,314.893,2.5,12.25,47.84626,-54.09684
2024-04-29 05:29:00+00:00,305.6796,2.5,12.25,47.84626,-54.09684
2024-04-29 05:39:00+00:00,299.748,2.3,12.25,47.84626,-54.09684
2024-04-29 05:49:00+00:00,296.028,2.1,12.25,47.84626,-54.09684
2024-04-29 05:59:00+00:00,288.0397,2.09,12.25,47.84626,-54.09684
2024-04-29 06:09:00+00:00,282.3981,2.0,12.25,47.84626,-54.09684
2024-04-29 06:19:00+00:00,276.1814,2.0,12.25,47.84626,-54.09684
2024-04-29 06:29:00+00:00,270.5297,2.52,12.25,47.84626,-54.09684
2024-04-29 06:39:00+00:00,261.8631,2.5,12.25,47.84626,-54.09684
2024-04-29 06:49:00+00:00,251.2598,2.5,12.25,47.84626,-54.09684
2024-04-29 06:59:00+00:00,244.3497,2.5,12.25,47.84626,-54.09684
2024-04-29 07:09:00+00:00,239.2498,2.5,12.25,47.84626,-54.09684
2024-04-29 07:19:00+00:00,231.3448,2.55,12.25,47.84626,-54.09684
2024-04-29 07:29:00+00:00,224.968,2.6,12.25,47.84626,-54.09684
2024-04-29 07:39:00+00:00,226.8248,2.6,12.25,47.84626,-54.09684
2024-04-29 07:49:00+00:00,225.6198,2.6,12.25,47.84626,-54.09684
2024-04-29 07:59:00+00:00,221.0297,2.6,12.25,47.84626,-54.09684
2024-04-29 08:09:00+00:00,215.2381,2.6,12.25,47.84626,-54.09684
2024-04-29 08:19:00+00:00,215.4515,2.58,12.25,47.84626,-54.09684
2024-04-29 08:29:00+00:00,214.4098,2.5,12.25,47.84626,-54.09684
2024-04-29 08:39:00+00:00,208.0514,2.5,12.25,47.84626,-54.09684
2024-04-29 08:49:00+00:00,202.4698,2.5,12.25,47.84626,-54.09684
2024-04-29 08:59:00+00:00,205.2964,2.5,12.25,47.84626,-54.09684
2024-04-29 09:09:00+00:00,212.2198,2.49,12.25,47.84626,-54.09684
2024-04-29 09:19:00+00:00,219.7898,2.49,12.25,47.84626,-54.09684
2024-04-29 09:29:00+00:00,217.9898,2.5,12.25,47.84626,-54.09684
2024-04-29 09:39:00+00:00,215.6297,2.5,12.25,47.84626,-54.09684
2024-04-29 09:49:00+00:00,223.5581,2.5,12.25,47.84626,-54.09684
2024-04-29 09:59:00+00:00,232.1697,2.15,12.25,47.84626,-54.09684
2024-04-29 10:09:00+00:00,228.6664,2.18,12.25,47.84626,-54.09684
2024-04-29 10:19:00+00:00,223.813,2.46,12.25,47.84626,-54.09684
2024-04-29 10:29:00+00:00,231.6531,2.4,12.25,47.84626,-54.09684
2024-04-29 10:39:00+00:00,239.668,2.38,12.25,47.84626,-54.09684
2024-04-29 10:49:00+00:00,230.5547,2.5,12.25,47.84626,-54.09684
2024-04-29 10:59:00+00:00,228.4664,2.48,12.25,47.84626,-54.09684
2024-04-29 11:09:00+00:00,240.2214,2.1,12.25,47.84626,-54.09684
2024-04-29 11:19:00+00:00,237.263,2.09,12.33,47.84626,-54.09684
2024-04-29 11:29:00+00:00,232.5331,2.2,12.33,47.84626,-54.09684
2024-04-29 11:39:00+00:00,243.2164,2.1,12.33,47.84626,-54.09684
2024-04-29 11:49:00+00:00,252.113,2.1,12.33,47.84626,-54.09684
2024-04-29 11:59:00+00:00,251.9981,2.0,12.33,47.84626,-54.09684
2024-04-29 12:09:00+00:00,253.1397,2.0,12.33,47.84626,-54.09684
2024-04-29 12:19:00+00:00,263.4597,1.99,12.41,47.84626,-54.09684
2024-04-29 12:29:00+00:00,265.3564,1.98,12.41,47.84626,-54.09684
2024-04-29 12:39:00+00:00,265.753,1.99,12.41,47.84626,-54.09684
2024-04-29 12:49:00+00:00,273.9197,1.99,12.41,47.84626,-54.09684
2024-04-29 12:59:00+00:00,282.3814,1.9,12.41,47.84626,-54.09684
2024-04-29 13:09:00+00:00,284.0181,1.9,12.41,47.84626,-54.09684
2024-04-29 13:19:00+00:00,293.793,1.9,12.41,47.84626,-54.09684
2024-04-29 13:29:00+00:00,304.7564,1.9,12.41,47.84626,-54.09684
2024-04-29 13:39:00+00:00,304.053,1.9,12.41,47.84626,-54.09684
2024-04-29 13:49:00+00:00,300.6296,1.9,12.41,47.84626,-54.09684
2024-04-29 13:59:00+00:00,314.7463,1.9,12.41,47.84626,-54.09684
2024-04-29 14:09:00+00:00,325.0347,1.83,12.41,47.84626,-54.09684
2024-04-29 14:19:00+00:00,309.4114,1.9,12.33,47.84626,-54.09684
2024-04-29 14:29:00+00:00,305.39799999999997,1.9,12.33,47.84626,-54.09684
2024-04-29 14:39:00+00:00,322.0647,1.9,12.33,47.84626,-54.09684
2024-04-29 14:49:00+00:00,325.0313,1.9,12.33,47.84626,-54.09684
2024-04-29 14:59:00+00:00,305.6397,1.9,12.33,47.84626,-54.09684
2024-04-29 15:09:00+00:00,308.9613,1.9,12.33,47.84626,-54.09684
2024-04-29 15:19:00+00:00,321.6563,1.9,12.41,47.84626,-54.09684
2024-04-29 15:29:00+00:00,322.5596,1.9,12.41,47.84626,-54.09684
2024-04-29 15:39:00+00:00,313.1429,1.9,12.41,47.84626,-54.09684
2024-04-29 15:49:00+00:00,322.083,1.87,12.41,47.84626,-54.09684
2024-04-29 15:59:00+00:00,328.5912,1.86,12.41,47.84626,-54.09684
2024-04-29 16:09:00+00:00,318.863,1.9,12.41,47.84626,-54.09684
2024-04-29 16:19:00+00:00,315.3314,1.9,12.49,47.84626,-54.09684
2024-04-29 16:29:00+00:00,325.7247,1.8,12.49,47.84626,-54.09684
2024-04-29 16:39:00+00:00,322.5463,1.86,12.49,47.84626,-54.09684
2024-04-29 16:49:00+00:00,307.783,2.48,12.49,47.84626,-54.09684
2024-04-29 16:59:00+00:00,308.043,2.1,12.49,47.84626,-54.09684
2024-04-29 17:09:00+00:00,317.0296,2.18,12.49,47.84626,-54.09684
2024-04-29 17:19:00+00:00,308.0797,2.28,12.65,47.84626,-54.09684
2024-04-29 17:29:00+00:00,296.3564,2.0,12.65,47.84626,-54.09684
2024-04-29 17:39:00+00:00,295.4515,1.99,12.65,47.84626,-54.09684
2024-04-29 17:49:00+00:00,292.4064,1.96,12.65,47.84626,-54.09684
2024-04-29 17:59:00+00:00,279.0197,2.48,12.65,47.84626,-54.09684
2024-04-29 18:09:00+00:00,271.3098,2.42,12.65,47.84626,-54.09684
2024-04-29 18:19:00+00:00,270.7864,2.0,12.65,47.84626,-54.09684
2024-04-29 18:29:00+00:00,263.5698,2.0,12.65,47.84626,-54.09684
2024-04-29 18:39:00+00:00,255.8998,2.05,12.65,47.84626,-54.09684
2024-04-29 18:49:00+00:00,252.058,2.0,12.65,47.84626,-54.09684
2024-04-29 18:59:00+00:00,247.7281,1.9,12.65,47.84626,-54.09684
2024-04-29 19:09:00+00:00,239.8981,2.01,12.65,47.84626,-54.09684
2024-04-29 19:19:00+00:00,235.5714,2.12,12.65,47.84626,-54.09684
2024-04-29 19:29:00+00:00,228.8348,2.2,12.65,47.84626,-54.09684
2024-04-29 19:39:00+00:00,224.4616,2.3,12.65,47.84626,-54.09684
2024-04-29 19:49:00+00:00,225.8398,2.3,12.65,47.84626,-54.09684
2024-04-29 19:59:00+00:00,223.5781,2.4,12.65,47.84626,-54.09684
2024-04-29 20:09:00+00:00,214.0614,2.47,12.65,47.84626,-54.09684
2024-04-29 20:19:00+00:00,214.0815,2.5,12.41,47.84626,-54.09684
2024-04-29 20:29:00+00:00,224.1664,2.5,12.41,47.84626,-54.09684
2024-04-29 20:39:00+00:00,221.2948,2.45,12.41,47.84626,-54.09684
2024-04-29 20:49:00+00:00,210.0497,2.7,12.41,47.84626,-54.09684
2024-04-29 20:59:00+00:00,213.2314,2.55,12.41,47.84626,-54.09684
2024-04-29 21:09:00+00:00,224.2348,2.4,12.41,47.84626,-54.09684
2024-04-29 21:19:00+00:00,218.6048,2.65,12.33,47.84626,-54.09684
2024-04-29 21:29:00+00:00,211.1448,2.81,12.33,47.84626,-54.09684
2024-04-29 21:39:00+00:00,224.5731,2.8,12.33,47.84626,-54.09684
2024-04-29 21:49:00+00:00,235.2264,2.4,12.33,47.84626,-54.09684
2024-04-29 21:59:00+00:00,229.1398,2.74,12.33,47.84626,-54.09684
2024-04-29 22:09:00+00:00,228.3481,2.7,12.33,47.84626,-54.09684
2024-04-29 22:19:00+00:00,237.7898,2.3,12.33,47.84626,-54.09684
2024-04-29 22:29:00+00:00,241.0182,2.25,12.33,47.84626,-54.09684
2024-04-29 22:39:00+00:00,239.6748,2.4,12.33,47.84626,-54.09684
2024-04-29 22:49:00+00:00,244.6414,2.19,12.33,47.84626,-54.09684
2024-04-29 22:59:00+00:00,252.2731,2.0,12.33,47.84626,-54.09684
2024-04-29 23:09:00+00:00,253.2031,2.0,12.33,47.84626,-54.09684
2024-04-29 23:19:00+00:00,249.0131,2.0,12.25,47.84626,-54.09684
2024-04-29 23:29:00+00:00,257.3131,2.0,12.25,47.84626,-54.09684
2024-04-29 23:39:00+00:00,263.0714,2.02,12.25,47.84626,-54.09684
2024-04-29 23:49:00+00:00,261.0497,2.06,12.25,47.84626,-54.09684
2024-04-29 23:59:00+00:00,259.4964,2.05,12.25,47.84626,-54.09684
